CW1575 Weather Reports


Display with metric or nautical units.
time (UTC)temp
F
wind
direction
speed
MPH
gust
MPH
rain 1hr
in
rain 24hr
in
rain mn
in
humidity
%
barometer
mb
20170220131459 39 219 1.0 3.0 0.00 0.00 0.00 40 1014.4
20170220130959 39 219 0.0 2.0 0.00 0.00 0.00 43 1014.3
20170220130459 40 219 2.0 5.0 0.00 0.00 0.00 43 1014.5
20170220125959 40 219 2.0 3.0 0.00 0.00 0.00 38 1014.1
20170220125459 41 267 1.0 3.0 0.00 0.00 0.00 36 1014.3
20170220124959 41 267 2.0 3.0 0.00 0.00 0.00 36 1014.4
20170220124459 41 267 1.0 3.0 0.00 0.00 0.00 36 1014.6
20170220123959 41 267 1.0 2.0 0.00 0.00 0.00 36 1014.4
20170220123459 41 267 1.0 3.0 0.00 0.00 0.00 35 1014.5
20170220123000 42 251 2.0 7.0 0.00 0.00 0.00 35 1014.1
20170220122459 42 274 3.0 8.0 0.00 0.00 0.00 34 1013.8
20170220122000 42 271 3.0 6.0 0.00 0.00 0.00 34 1013.7
20170220121459 42 279 5.0 10.0 0.00 0.00 0.00 34 1013.7
20170220120958 42 291 4.0 8.0 0.00 0.00 0.00 34 1013.7
20170220120459 42 309 4.0 12.0 0.00 0.00 0.00 34 1013.6
20170220115958 42 276 7.0 16.0 0.00 0.00 0.00 34 1013.6
20170220115459 42 279 7.0 12.0 0.00 0.00 0.00 34 1013.5
20170220114959 42 264 4.0 10.0 0.00 0.00 0.00 33 1013.4
20170220114459 42 247 5.0 12.0 0.00 0.00 0.00 33 1013.5
20170220114000 42 286 5.0 10.0 0.00 0.00 0.00 33 1013.3
20170220113459 42 242 5.0 8.0 0.00 0.00 0.00 33 1013.2
20170220112959 42 247 5.0 10.0 0.00 0.00 0.00 33 1013.2
20170220112458 42 234 5.0 15.0 0.00 0.00 0.00 32 1013.1
20170220111959 42 261 7.0 14.0 0.00 0.00 0.00 32 1013.0
20170220111459 42 257 3.0 8.0 0.00 0.00 0.00 32 1013.0
20170220110959 42 272 3.0 9.0 0.00 0.00 0.00 32 1012.7
20170220110459 42 263 5.0 10.0 0.00 0.00 0.00 33 1012.7
20170220105959 42 244 4.0 9.0 0.00 0.00 0.00 33 1012.2
20170220105459 42 230 5.0 12.0 0.00 0.00 0.00 34 1012.1
20170220104959 42 274 5.0 13.0 0.00 0.00 0.00 34 1012.1
20170220104459 42 275 5.0 12.0 0.00 0.00 0.00 34 1012.0
20170220103959 42 250 3.0 8.0 0.00 0.00 0.00 34 1011.9
20170220103500 42 268 4.0 8.0 0.00 0.00 0.00 34 1011.9
20170220103000 42 258 5.0 10.0 0.00 0.00 0.00 34 1011.8
20170220102459 42 270 3.0 8.0 0.00 0.00 0.00 33 1011.9
20170220101959 42 271 8.0 18.0 0.00 0.00 0.00 34 1011.7
20170220101459 42 254 3.0 10.0 0.00 0.00 0.00 34 1011.5
20170220100959 42 271 4.0 12.0 0.00 0.00 0.00 33 1011.4
20170220100459 42 267 3.0 8.0 0.00 0.00 0.00 33 1011.3
20170220100004 42 298 3.0 3.0 0.00 0.00 0.00 33 1011.2
20170220095459 42 302 3.0 10.0 0.00 0.00 0.00 33 1011.0
20170220094959 43 283 3.0 9.0 0.00 0.00 0.00 33 1010.8
20170220094459 43 304 2.0 3.0 0.00 0.00 0.00 33 1010.7
20170220093959 43 284 2.0 9.0 0.00 0.00 0.00 33 1010.6
20170220093458 43 296 3.0 7.0 0.00 0.00 0.00 33 1010.3
20170220092959 44 285 2.0 7.0 0.00 0.00 0.00 33 1010.3
20170220092459 44 299 6.0 12.0 0.00 0.00 0.00 33 1010.1
20170220091959 44 294 6.0 12.0 0.00 0.00 0.00 33 1010.0
20170220091459 44 287 5.0 12.0 0.00 0.00 0.00 33 1009.7
20170220090959 44 273 7.0 13.0 0.00 0.00 0.00 33 1009.8
20170220090459 44 262 5.0 14.0 0.00 0.00 0.00 33 1009.7
20170220085959 44 260 9.0 14.0 0.00 0.00 0.00 33 1009.7
20170220085459 44 285 6.0 12.0 0.00 0.00 0.00 34 1009.3
20170220084958 44 269 6.0 12.0 0.00 0.00 0.00 34 1009.3
20170220084459 45 268 8.0 17.0 0.00 0.00 0.00 34 1009.3
20170220083959 45 270 9.0 17.0 0.00 0.00 0.00 34 1009.3
20170220083459 45 287 8.0 17.0 0.00 0.00 0.00 34 1009.4
20170220082959 45 289 6.0 23.0 0.00 0.00 0.00 34 1009.3
20170220082459 45 283 9.0 17.0 0.00 0.00 0.00 33 1009.1
20170220081959 45 293 5.0 12.0 0.00 0.00 0.00 34 1009.1
20170220081459 45 285 6.0 12.0 0.00 0.00 0.00 35 1009.1
20170220080959 45 285 5.0 12.0 0.00 0.00 0.00 35 1009.0
20170220080459 45 286 10.0 20.0 0.00 0.00 0.00 36 1008.9
20170220075959 45 289 6.0 14.0 0.00 0.00 0.00 37 1008.9
20170220075459 46 299 8.0 17.0 0.00 0.00 0.00 36 1008.6
20170220075000 46 261 6.0 13.0 0.00 0.00 0.00 37 1008.6
20170220074459 46 256 5.0 13.0 0.00 0.00 0.00 37 1008.6
20170220073959 46 259 7.0 14.0 0.00 0.00 0.00 37 1008.6
20170220073500 46 259 5.0 20.0 0.00 0.00 0.00 37 1008.7
20170220072959 47 249 6.0 14.0 0.00 0.00 0.00 37 1008.8
20170220072459 47 259 6.0 13.0 0.00 0.00 0.00 37 1008.7
20170220071959 47 276 7.0 17.0 0.00 0.00 0.00 37 1008.8
20170220071459 47 270 2.0 8.0 0.00 0.00 0.00 40 1008.8
20170220070959 47 283 2.0 12.0 0.00 0.00 0.00 40 1008.7
20170220070459 47 266 3.0 10.0 0.00 0.00 0.00 41 1008.6
20170220065958 47 255 7.0 14.0 0.00 0.00 0.00 41 1008.3
20170220065459 47 264 7.0 16.0 0.00 0.00 0.00 42 1008.2
20170220065000 47 286 4.0 10.0 0.00 0.00 0.00 43 1008.0
20170220064459 47 258 5.0 12.0 0.00 0.00 0.00 43 1007.8
20170220063959 47 276 5.0 9.0 0.00 0.00 0.00 43 1007.7
20170220063459 47 273 5.0 10.0 0.00 0.00 0.00 43 1007.6
20170220062959 47 260 6.0 12.0 0.00 0.00 0.00 43 1007.4
20170220062459 47 280 5.0 10.0 0.00 0.00 0.00 43 1007.3
20170220061959 47 275 5.0 10.0 0.00 0.00 0.00 43 1007.1
20170220061458 47 276 2.0 8.0 0.00 0.00 0.00 43 1007.1
20170220060959 47 265 5.0 8.0 0.00 0.00 0.00 43 1007.1
20170220060459 47 273 5.0 12.0 0.00 0.00 0.00 43 1007.1
20170220055959 47 304 5.0 9.0 0.00 0.00 0.00 44 1007.1
20170220055459 47 305 5.0 9.0 0.00 0.00 0.00 44 1007.0
20170220054959 47 253 5.0 10.0 0.00 0.00 0.00 44 1007.0
20170220054459 47 286 4.0 12.0 0.00 0.00 0.00 44 1006.9
20170220053959 47 277 7.0 12.0 0.00 0.00 0.00 44 1006.9
20170220053459 47 303 3.0 9.0 0.00 0.00 0.00 46 1006.8
20170220052959 47 286 3.0 12.0 0.00 0.00 0.00 46 1006.7
20170220052459 47 305 3.0 9.0 0.00 0.00 0.00 49 1006.8
20170220051959 48 353 2.0 6.0 0.00 0.00 0.00 52 1006.6
20170220051459 48 309 1.0 5.0 0.00 0.00 0.00 53 1006.6
20170220050959 48 313 2.0 9.0 0.00 0.00 0.00 50 1006.6
20170220050459 48 308 3.0 8.0 0.00 0.00 0.00 48 1006.5
20170220045959 48 297 4.0 9.0 0.00 0.00 0.00 46 1006.4
20170220045459 48 265 3.0 9.0 0.00 0.00 0.00 48 1006.4
20170220044959 48 250 3.0 9.0 0.00 0.00 0.00 49 1006.3
20170220044459 48 233 2.0 7.0 0.00 0.00 0.00 51 1006.2
20170220043959 48 249 2.0 3.0 0.00 0.00 0.00 51 1006.1
20170220043459 48 277 2.0 3.0 0.00 0.00 0.00 53 1006.1
20170220042959 48 276 3.0 7.0 0.00 0.00 0.00 54 1006.1
20170220042459 48 269 2.0 5.0 0.00 0.00 0.00 59 1006.1
20170220041959 48 244 1.0 3.0 0.00 0.00 0.00 58 1006.1
20170220041458 48 297 3.0 8.0 0.00 0.00 0.00 58 1005.9
20170220040959 48 298 3.0 7.0 0.00 0.00 0.00 59 1005.9
20170220040459 49 270 3.0 9.0 0.00 0.00 0.00 61 1005.8
20170220035959 49 277 3.0 8.0 0.00 0.00 0.00 61 1005.8
20170220035459 49 293 2.0 9.0 0.00 0.00 0.00 61 1005.5
20170220034959 49 242 4.0 9.0 0.00 0.00 0.00 59 1005.5
20170220034459 49 302 5.0 8.0 0.00 0.00 0.00 59 1005.1
20170220033959 49 311 2.0 10.0 0.00 0.00 0.00 58 1005.0
20170220033459 49 330 3.0 12.0 0.00 0.00 0.00 56 1005.0
20170220032959 49 319 5.0 12.0 0.00 0.00 0.00 55 1004.9
20170220032459 49 322 2.0 8.0 0.00 0.00 0.00 54 1004.8
20170220031959 49 330 2.0 5.0 0.00 0.00 0.00 54 1004.7
20170220031459 49 307 3.0 7.0 0.00 0.00 0.00 54 1004.5
20170220030959 49 343 3.0 9.0 0.00 0.00 0.00 54 1004.2
20170220030459 49 298 2.0 10.0 0.00 0.00 0.00 53 1004.0
20170220025959 49 303 1.0 5.0 0.00 0.00 0.00 52 1004.1
20170220025459 50 300 2.0 8.0 0.00 0.00 0.00 52 1003.9
20170220024959 50 301 4.0 9.0 0.00 0.00 0.00 52 1003.6
20170220024459 50 313 5.0 14.0 0.00 0.00 0.00 51 1003.6
20170220023959 50 312 9.0 16.0 0.00 0.00 0.00 51 1003.3
20170220023458 51 327 6.0 14.0 0.00 0.00 0.00 50 1003.2
20170220022959 51 295 9.0 15.0 0.00 0.00 0.00 49 1003.3
20170220022458 51 312 10.0 16.0 0.00 0.00 0.00 48 1003.5
20170220021959 52 291 8.0 16.0 0.00 0.00 0.00 47 1003.4
20170220021459 52 305 7.0 17.0 0.00 0.00 0.00 46 1003.3
20170220020959 52 305 7.0 15.0 0.00 0.00 0.00 46 1003.1
20170220020459 52 276 3.0 9.0 0.00 0.00 0.00 45 1003.0
20170220015959 52 284 7.0 12.0 0.00 0.00 0.00 44 1003.2
20170220015459 53 252 4.0 10.0 0.00 0.00 0.00 45 1003.1
20170220014959 53 300 1.0 3.0 0.00 0.00 0.00 44 1002.8
20170220014459 53 293 2.0 5.0 0.00 0.00 0.00 45 1002.5
20170220013959 53 309 2.0 5.0 0.00 0.00 0.00 45 1002.6
20170220013459 53 314 3.0 7.0 0.00 0.00 0.00 45 1002.4
20170220012959 53 355 2.0 7.0 0.00 0.00 0.00 44 1002.3
20170220012459 53 271 3.0 6.0 0.00 0.00 0.00 46 1002.1
20170220011959 53 321 2.0 8.0 0.00 0.00 0.00 46 1002.1
20170220011459 54 298 3.0 5.0 0.00 0.00 0.00 46 1002.2
20170220010959 54 302 2.0 5.0 0.00 0.00 0.00 44 1001.9
20170220010459 54 330 3.0 9.0 0.00 0.00 0.00 43 1001.8
20170220005958 54 328 5.0 10.0 0.00 0.00 0.00 41 1001.6
20170220005459 54 358 4.0 8.0 0.00 0.00 0.00 38 1001.7
20170220004959 54 337 3.0 9.0 0.00 0.00 0.00 38 1001.8
20170220004459 54 307 6.0 12.0 0.00 0.00 0.00 37 1001.4
20170220003959 54 332 6.0 9.0 0.00 0.00 0.00 37 1001.5
20170220003459 55 317 4.0 12.0 0.00 0.00 0.00 37 1001.5
20170220002959 55 305 6.0 12.0 0.00 0.00 0.00 37 1001.4
20170220002459 55 311 5.0 9.0 0.00 0.00 0.00 36 1001.1
20170220001959 55 328 5.0 10.0 0.00 0.00 0.00 36 1001.1
20170220001459 55 327 4.0 9.0 0.00 0.00 0.00 36 1001.1
20170220000958 56 8 4.0 10.0 0.00 0.00 0.00 36 1000.9
20170220000459 56 334 5.0 9.0 0.00 0.00 0.00 35 1000.8
20170219235959 56 319 2.0 5.0 0.00 0.00 0.00 35 1000.8
20170219235458 57 323 3.0 7.0 0.00 0.00 0.00 35 1000.8
20170219234959 57 358 4.0 6.0 0.00 0.00 0.00 35 1000.8
20170219234458 57 9 2.0 3.0 0.00 0.00 0.00 35 1000.7
20170219233959 57 9 2.0 5.0 0.00 0.00 0.00 35 1000.5
20170219233459 57 229 1.0 5.0 0.00 0.00 0.00 35 1000.3
20170219232959 57 259 2.0 5.0 0.00 0.00 0.00 35 1000.3
20170219232459 57 240 4.0 8.0 0.00 0.00 0.00 35 1000.1
20170219231959 58 285 2.0 9.0 0.00 0.00 0.00 35 999.9
20170219231459 58 326 4.0 9.0 0.00 0.00 0.00 36 1000.4
20170219230959 58 216 3.0 6.0 0.00 0.00 0.00 39 1000.5
20170219230500 58 48 1.0 3.0 0.00 0.00 0.00 38 1000.3
20170219225959 58 39 3.0 7.0 0.00 0.00 0.00 37 1000.8
20170219225500 59 26 1.0 3.0 0.00 0.00 0.00 33 1000.6
20170219224959 59 342 0.0 3.0 0.00 0.00 0.00 32 1000.8
20170219224459 59 3 3.0 8.0 0.00 0.00 0.00 32 1000.7
20170219223959 59 320 3.0 8.0 0.00 0.00 0.00 32 1000.8
20170219223459 59 333 3.0 6.0 0.00 0.00 0.00 32 1000.9
20170219222959 59 323 2.0 3.0 0.00 0.00 0.00 32 1000.9
20170219222459 59 329 1.0 3.0 0.00 0.00 0.00 33 1001.0
20170219221959 59 327 3.0 7.0 0.00 0.00 0.00 32 1000.9
20170219221459 59 332 4.0 8.0 0.00 0.00 0.00 32 1001.0
20170219220959 59 335 5.0 9.0 0.00 0.00 0.00 32 1001.0
20170219220459 59 348 3.0 5.0 0.00 0.00 0.00 32 1001.1
20170219215959 59 351 4.0 10.0 0.00 0.00 0.00 32 1001.1
20170219215500 59 330 5.0 12.0 0.00 0.00 0.00 32 1001.1
20170219214959 59 25 4.0 12.0 0.00 0.00 0.00 32 1001.3
20170219214459 59 344 3.0 9.0 0.00 0.00 0.00 31 1001.2
20170219213959 59 340 5.0 10.0 0.00 0.00 0.00 32 1001.1
20170219213459 59 325 7.0 13.0 0.00 0.00 0.00 31 1001.3
20170219212959 59 336 3.0 10.0 0.00 0.00 0.00 31 1001.1
20170219212459 59 353 5.0 8.0 0.00 0.00 0.00 31 1001.1
20170219211959 59 353 5.0 9.0 0.00 0.00 0.00 31 1001.0
20170219211458 59 316 5.0 12.0 0.00 0.00 0.00 31 1001.1
20170219210959 60 337 4.0 10.0 0.00 0.00 0.00 31 1001.0
20170219210459 60 345 5.0 12.0 0.00 0.00 0.00 30 1001.1
20170219205959 61 5 9.0 14.0 0.00 0.00 0.00 30 1001.1
20170219205459 61 18 7.0 12.0 0.00 0.00 0.00 29 1001.1
20170219204959 62 357 5.0 14.0 0.00 0.00 0.00 28 1001.1
20170219204459 63 5 7.0 12.0 0.00 0.00 0.00 28 1001.2
20170219203959 64 18 7.0 12.0 0.00 0.00 0.00 28 1001.4
20170219203459 64 23 6.0 12.0 0.00 0.00 0.00 27 1001.4
20170219202959 64 15 5.0 13.0 0.00 0.00 0.00 27 1001.4
20170219202459 65 19 10.0 16.0 0.00 0.00 0.00 27 1001.5
20170219201959 65 59 6.0 10.0 0.00 0.00 0.00 27 1001.5
20170219201459 65 9 9.0 13.0 0.00 0.00 0.00 27 1001.7
20170219200959 65 35 6.0 10.0 0.00 0.00 0.00 27 1001.9
20170219200459 64 26 6.0 12.0 0.00 0.00 0.00 27 1001.9
20170219195959 64 32 7.0 12.0 0.00 0.00 0.00 28 1001.9
20170219195458 63 6 5.0 10.0 0.00 0.00 0.00 28 1002.1
20170219194959 63 16 4.0 9.0 0.00 0.00 0.00 28 1001.9
20170219194459 63 10 5.0 9.0 0.00 0.00 0.00 28 1001.9
20170219193959 62 12 5.0 9.0 0.00 0.00 0.00 28 1002.0
20170219193458 62 32 3.0 7.0 0.00 0.00 0.00 28 1002.3
20170219192959 62 20 1.0 3.0 0.00 0.00 0.00 28 1002.5
20170219192459 62 22 1.0 3.0 0.00 0.00 0.00 27 1002.8
20170219191959 62 15 1.0 3.0 0.00 0.00 0.00 28 1002.9
20170219191459 62 35 1.0 3.0 0.00 0.00 0.00 28 1003.2
20170219190959 62 10 2.0 7.0 0.00 0.00 0.00 28 1003.4
20170219190459 61 22 1.0 5.0 0.00 0.00 0.00 29 1003.3
20170219185959 61 36 1.0 5.0 0.00 0.00 0.00 30 1003.6
20170219185459 61 14 4.0 6.0 0.00 0.00 0.00 30 1003.7
20170219184959 60 5 2.0 3.0 0.00 0.00 0.00 31 1003.7
20170219184459 60 342 3.0 8.0 0.00 0.00 0.00 31 1004.0
20170219183959 60 9 5.0 8.0 0.00 0.00 0.00 31 1004.2
20170219183459 60 27 3.0 8.0 0.00 0.00 0.00 31 1004.3
20170219183000 59 324 2.0 5.0 0.00 0.00 0.00 31 1004.4
20170219182459 59 326 3.0 3.0 0.00 0.00 0.00 32 1004.6
20170219182000 58 338 2.0 3.0 0.00 0.00 0.00 32 1004.7
20170219181459 58 5 1.0 3.0 0.00 0.00 0.00 33 1004.8
20170219180959 57 40 2.0 3.0 0.00 0.00 0.00 33 1004.8
20170219180459 57 142 1.0 3.0 0.00 0.00 0.00 33 1004.9
20170219175958 57 219 0.0 1.0 0.00 0.00 0.00 34 1004.8
20170219175459 56 219 0.0 2.0 0.00 0.00 0.00 33 1005.0
20170219174959 56 219 0.0 2.0 0.00 0.00 0.00 34 1005.2
20170219174459 56 219 1.0 2.0 0.00 0.00 0.00 34 1005.3
20170219173959 56 219 1.0 3.0 0.00 0.00 0.00 34 1005.4
20170219173459 55 221 2.0 3.0 0.00 0.00 0.00 35 1005.5
20170219172959 55 290 1.0 2.0 0.00 0.00 0.00 35 1005.2
20170219172459 55 290 2.0 3.0 0.00 0.00 0.00 35 1005.4
20170219171959 55 239 2.0 3.0 0.00 0.00 0.00 35 1005.7
20170219171459 55 334 2.0 3.0 0.00 0.00 0.00 36 1005.9
20170219170959 54 337 1.0 3.0 0.00 0.00 0.00 36 1005.9
20170219170458 54 30 1.0 3.0 0.00 0.00 0.00 36 1006.1
20170219165959 54 88 1.0 3.0 0.00 0.00 0.00 37 1006.0
20170219165459 54 355 1.0 3.0 0.00 0.00 0.00 38 1006.1
20170219164959 53 355 2.0 3.0 0.00 0.00 0.00 39 1006.1
20170219164459 52 355 0.0 1.0 0.00 0.00 0.00 40 1006.1
20170219163959 52 355 0.0 1.0 0.00 0.00 0.00 40 1006.0
20170219163459 51 355 1.0 3.0 0.00 0.00 0.00 41 1006.0
20170219162959 50 355 1.0 3.0 0.00 0.00 0.00 43 1006.1
20170219162459 49 355 2.0 3.0 0.00 0.00 0.00 44 1006.3
20170219161959 48 355 1.0 3.0 0.00 0.00 0.00 47 1006.4
20170219161459 47 355 1.0 3.0 0.00 0.00 0.00 49 1006.5
20170219160959 45 355 0.0 1.0 0.00 0.00 0.00 51 1006.7
20170219160459 44 355 1.0 3.0 0.00 0.00 0.00 52 1006.4
20170219155959 43 126 0.0 1.0 0.00 0.00 0.00 55 1006.5
20170219155500 42 126 1.0 2.0 0.00 0.00 0.00 56 1006.8
20170219154959 41 126 1.0 2.0 0.00 0.00 0.00 59 1006.8
20170219154459 40 121 1.0 2.0 0.00 0.00 0.00 60 1006.9
20170219153959 39 230 1.0 2.0 0.00 0.00 0.00 62 1006.8
20170219153459 39 230 0.0 2.0 0.00 0.00 0.00 64 1006.3
20170219152959 38 230 0.0 2.0 0.00 0.00 0.00 64 1006.3
20170219152459 38 230 1.0 2.0 0.00 0.00 0.00 65 1006.1
20170219151959 37 266 1.0 3.0 0.00 0.00 0.00 65 1006.2
20170219151459 37 53 0.0 1.0 0.00 0.00 0.00 65 1006.5
20170219150959 37 53 0.0 0.0 0.00 0.00 0.00 65 1006.5
20170219150459 37 53 0.0 0.0 0.00 0.00 0.00 66 1006.6
20170219145959 37 53 0.0 2.0 0.00 0.00 0.00 66 1006.7
20170219145459 36 53 1.0 2.0 0.00 0.00 0.00 66 1007.1
20170219144959 36 53 0.0 0.0 0.00 0.00 0.00 65 1007.1
20170219144458 36 53 0.0 1.0 0.00 0.00 0.00 65 1007.0
20170219143959 36 53 0.0 0.0 0.00 0.00 0.00 65 1006.9
20170219143458 36 53 1.0 1.0 0.00 0.00 0.00 65 1006.7
20170219142959 36 53 1.0 2.0 0.00 0.00 0.00 65 1006.6
20170219142459 36 53 0.0 1.0 0.00 0.00 0.00 65 1006.7
20170219141959 35 53 1.0 3.0 0.00 0.00 0.00 65 1006.6
20170219141459 35 51 2.0 3.0 0.00 0.00 0.00 66 1006.0
20170219140959 35 50 0.0 1.0 0.00 0.00 0.00 67 1005.6
20170219140459 35 50 0.0 1.0 0.00 0.00 0.00 66 1005.6
20170219135959 35 50 1.0 3.0 0.00 0.00 0.00 67 1005.6
20170219135459 35 294 2.0 3.0 0.00 0.00 0.00 68 1005.4
20170219134959 35 294 1.0 2.0 0.00 0.00 0.00 69 1005.4
20170219134459 35 294 0.0 1.0 0.00 0.00 0.00 69 1005.4
20170219133959 34 294 2.0 3.0 0.00 0.00 0.00 70 1005.2
20170219133459 34 294 1.0 2.0 0.00 0.00 0.00 71 1004.9
20170219132959 34 294 1.0 3.0 0.00 0.00 0.00 71 1004.8
20170219132459 34 294 2.0 3.0 0.00 0.00 0.00 71 1004.8
20170219131959 34 294 1.0 3.0 0.00 0.00 0.00 70 1004.9